Greenville, MS

7:39 PM CDT on May 28, 2017 (GMT -0500)
Mid Delta Regional

Weather History for KGLH - October, 2012

Change the Weather History Date:

Saturday, October 13, 2012

  Actual Average Record
Temperature  
Mean Temperature 73 °F 66 °F  
Max Temperature 84 °F 78 °F 93 °F (1963)
Min Temperature 61 °F 53 °F 35 °F (1946)
Degree Days  
Heating Degree Days 0 3  
Month to date heating degree days 48 22  
Since 1 July heating degree days 51 28  
Cooling Degree Days 8 3  
Month to date cooling degree days 32 53  
Year to date cooling degree days 2405 2133  
Growing Degree Days 21 (Base 50)    
Moisture  
Dew Point 63 °F    
Average Humidity 76    
Maximum Humidity 100    
Minimum Humidity 51    
Precipitation  
Precipitation 0.00 in 0.14 in 2.16 in (2009)
Month to date precipitation 0.89 1.87  
Year to date precipitation 34.02 39.51  
Sea Level Pressure  
Sea Level Pressure 30.14 in    
Wind  
Wind Speed 10 mph (SSE)    
Max Wind Speed 21 mph    
Max Gust Speed 24 mph    
Visibility 6 miles    
Events      
T = Trace of Precipitation, MM = Missing Value Source: NWS Daily Summary

Daily Weather History Graph

Daily Weather History Graph

Search for Another Location

Airport or City:

Trip Planner

Search our weather history database for the weather conditions in past years. The results will help you decide how hot, cold, wet, or windy it might be!

Date:

Astronomy

Oct. 13, 2012 Rise Set
Actual Time 7:07 AM CDT 6:32 PM CDT
Civil Twilight 6:42 AM CDT 6:57 PM CDT
Nautical Twilight 6:13 AM CDT 7:25 PM CDT
Astronomical Twilight 5:44 AM CDT 7:54 PM CDT
Moon 5:02 AM CDT (10/13) 5:13 PM CDT (10/13)
Length of Visible Light 12h 14m
Length of Day
11h 24m
Waning Crescent, 5% of the Moon is Illuminated
Oct 13
Waning Crescent
Oct 15
New
Oct 21
First Quarter
Oct 29
Full
Nov 6
Last Quarter

Hourly Weather History & Observations

Time (CDT) Temp. Heat Index Dew Point Humidity Pressure Visibility Wind Dir Wind Speed Gust Speed Precip Events Conditions
12:53 AM 64.0 °F - 63.0 °F 96% 30.18 in 5.0 mi Calm Calm - N/A   Clear
1:19 AM 62.6 °F - 62.6 °F 100% 30.16 in 1.5 mi ESE 3.5 mph - N/A   Clear
1:28 AM 62.6 °F - 62.6 °F 100% 30.16 in 0.5 mi Calm Calm - N/A   Clear
1:49 AM 62.6 °F - 62.6 °F 100% 30.16 in 4.0 mi Calm Calm - N/A   Clear
1:53 AM 63.0 °F - 62.1 °F 97% 30.18 in 4.0 mi ESE 3.5 mph - N/A   Clear
2:53 AM 64.0 °F - 63.0 °F 96% 30.17 in 4.0 mi Calm Calm - N/A   Partly Cloudy
3:26 AM 62.6 °F - 62.6 °F 100% 30.16 in 1.5 mi Calm Calm - N/A   Clear
3:44 AM 62.6 °F - 62.6 °F 100% 30.15 in 2.5 mi ESE 4.6 mph - N/A   Clear
3:53 AM 62.1 °F - 62.1 °F 100% 30.17 in 2.5 mi ESE 3.5 mph - N/A   Clear
4:28 AM 62.6 °F - 62.6 °F 100% 30.15 in 3.0 mi SE 3.5 mph - N/A   Clear
4:53 AM 62.1 °F - 61.0 °F 96% 30.17 in 3.0 mi SE 3.5 mph - N/A   Clear
5:53 AM 63.0 °F - 62.1 °F 97% 30.19 in 4.0 mi SSE 4.6 mph - N/A   Clear
6:53 AM 62.1 °F - 61.0 °F 96% 30.20 in 4.0 mi Calm Calm - N/A   Clear
7:11 AM 60.8 °F - 60.8 °F 100% 30.18 in 2.5 mi SSE 3.5 mph - N/A   Clear
7:43 AM 62.6 °F - 62.6 °F 100% 30.18 in 3.0 mi South 3.5 mph - N/A   Clear
7:53 AM 64.0 °F - 62.1 °F 93% 30.20 in 3.0 mi South 4.6 mph - N/A   Clear
8:53 AM 68.0 °F - 64.9 °F 90% 30.22 in 5.0 mi South 6.9 mph - N/A   Clear
9:53 AM 73.0 °F - 66.9 °F 81% 30.22 in 9.0 mi South 10.4 mph - N/A   Clear
10:53 AM 78.1 °F - 66.0 °F 66% 30.20 in 10.0 mi South 13.8 mph - N/A   Clear
11:53 AM 81.0 °F 82.2 °F 63.0 °F 54% 30.17 in 10.0 mi South 19.6 mph 24.2 mph N/A   Clear
12:53 PM 82.4 °F 83.4 °F 62.6 °F 51% 30.12 in 10.0 mi SSW 17.3 mph - N/A   Partly Cloudy
1:53 PM 82.0 °F 83.4 °F 64.0 °F 54% 30.11 in 10.0 mi South 15.0 mph - N/A   Scattered Clouds
2:53 PM 82.9 °F 84.6 °F 64.9 °F 54% 30.07 in 10.0 mi South 13.8 mph - N/A   Scattered Clouds
3:53 PM 82.0 °F 83.8 °F 64.9 °F 56% 30.06 in 10.0 mi South 13.8 mph - N/A   Partly Cloudy
4:53 PM 82.0 °F 83.4 °F 64.0 °F 54% 30.06 in 10.0 mi SSW 13.8 mph 23.0 mph N/A   Partly Cloudy
5:53 PM 80.1 °F 81.7 °F 64.0 °F 58% 30.05 in 10.0 mi South 10.4 mph - N/A   Partly Cloudy
7:53 PM 77.0 °F - 64.0 °F 64% 30.04 in 10.0 mi SSE 10.4 mph - N/A   Clear
8:53 PM 75.0 °F - 64.0 °F 69% 30.04 in 10.0 mi SSE 10.4 mph - N/A   Clear
9:53 PM 73.9 °F - 64.0 °F 71% 30.04 in 10.0 mi SSE 10.4 mph - N/A   Clear
11:53 PM 73.4 °F - 66.2 °F 78% 30.00 in 10.0 mi South 15.0 mph - N/A   Clear